Location: Grange Verzio
(44.5000°N, 6.9833°E)
Time: 18:18:30
(UTC+00:00)

Cosmos 1745 Rocket - Pass Details

Date: 01 February 2023
Orbit: 952 x 998 km, 83.0° (Epoch: 29 March)

Event Time Altitude Azimuth Distance (km) Brightness Sun altitude
Rises 18:24:03 0° 356° (N) 3,701 7.0 -18.6°
Reaches altitude 10° 18:26:42 10° 2° (N) 2,741 6.3 -19.1°
Maximum altitude 18:32:45 48° 76° (ENE) 1,244 4.1 -20.1°
Drops below altitude 10° 18:38:42 10° 150° (SSE) 2,693 6.1 -21.2°
Sets 18:41:16 0° 156° (SSE) 3,629 6.8 -21.7°
